This demonstration page uses our WeatherBlox Daily Observations layout. Learn more.

Left ArrowRight Arrow

39.08367, -84.50855

Hourly Observations for July 12, 2020

Temp ( °F °C ) Dew Point ( °F °C ) Humidity (%) Winds ( mph kmh ) Pressure ( in mb ) Visibility ( mi km ) Precip ( " mm )
12:53 am 00:53 Clear 68 20 65 18.3 90 90 S 5 7 29.83 1010 10 16 N/A
1:53 am 01:53 Clear 66 18.9 64 17.8 93 93 ENE 3 6 29.83 1010 9 14 N/A
2:53 am 02:53 Clear 66 18.9 65 18.3 96 96 N N/A 29.83 1010 8 13 N/A
3:53 am 03:53 Mostly Cloudy 69 20.6 63 17.2 81 81 W 8 13 29.83 1010 10 16 N/A
4:53 am 04:53 Mostly Clear 68 20 63 17.2 84 84 WSW 3 6 29.82 1010 10 16 0.00 0.00
5:53 am 05:53 Mostly Clear 68 20 63 17.2 84 84 NE 8 13 29.78 1008 10 16 N/A
6:53 am 06:53 Mostly Sunny 67 19.4 63 17.2 87 87 SSW 7 11 29.80 1009 10 16 N/A
7:53 am 07:53 Cloudy 68 20 64 17.8 87 87 W 9 15 29.86 1011 10 16 N/A
8:53 am 08:53 Mostly Cloudy 69 20.6 63 17.2 81 81 W 8 13 29.86 1011 10 16 N/A
9:53 am 09:53 Sunny 73 22.8 64 17.8 74 74 VRB 5 7 29.85 1011 10 16 N/A
10:53 am 10:53 Mostly Sunny 75 23.9 64 17.8 69 69 N N/A 29.84 1011 10 16 N/A
11:53 am 11:53 Sunny 78 25.6 65 18.3 64 64 N N/A 29.84 1011 10 16 N/A
12:53 pm 12:53 Mostly Sunny 81 27.2 65 18.3 58 58 SW 5 7 29.83 1010 10 16 N/A
1:53 pm 13:53 Mostly Cloudy 81 27.2 65 18.3 58 58 WNW 8 13 29.83 1010 10 16 N/A
2:53 pm 14:53 Partly Cloudy 81 27.2 63 17.2 54 54 NW 9 15 29.80 1009 10 16 N/A
3:53 pm 15:53 Partly Cloudy 83 28.3 65 18.3 55 55 NW 7 11 29.79 1009 10 16 N/A
4:53 pm 16:53 Mostly Cloudy 83 28.3 64 17.8 53 53 NW 8 13 29.80 1009 10 16 N/A
5:53 pm 17:53 Mostly Cloudy 75 23.9 64 17.8 69 69 NNE 16 26 29.82 1010 10 16 N/A
6:14 pm 18:14 Partly Cloudy with Nearby Thunderstorms 73 22.8 64 17.8 74 74 ENE 10 17 29.81 1010 10 16 N/A
6:29 pm 18:29 Sunny 75 23.9 64 17.8 69 69 NE 8 13 29.81 1010 10 16 N/A
6:53 pm 18:53 Mostly Cloudy 75 23.9 62 16.7 64 64 NNE 12 19 29.81 1010 10 16 N/A
7:53 pm 19:53 Sunny 74 23.3 62 16.7 67 67 NE 6 9 29.83 1010 10 16 N/A
8:53 pm 20:53 Sunny 72 22.2 63 17.2 73 73 N N/A 29.84 1010 10 16 N/A
9:53 pm 21:53 Clear 68 20 64 17.8 87 87 N N/A 29.85 1011 10 16 N/A
10:53 pm 22:53 Clear 66 18.9 63 17.2 90 90 N N/A 29.87 1012 10 16 N/A
11:53 pm 23:53 Clear 65 18.3 63 17.2 93 93 N N/A 29.88 1012 10 16 N/A

Powered by AerisWeather